• In Uzbekistan
  • List of Countries
  • For 7 days
  • Water Temperature
  • Weather Map
  • Weather Widgets
  • user-avatar
    Login

    Hourly Weather San Luis

    Today, 15 November, Friday

    Time Temperature Precipitation Wind Pressure Humidity
    00:00 +25°C° 0 mm 3 mps 697 mmHg 44%
    01:00 +25°C° 0 mm 3 mps 697 mmHg 45%
    02:00 +25°C° 0 mm 3 mps 696 mmHg 47%
    03:00 +25°C° 0 mm 4 mps 696 mmHg 47%
    04:00 +25°C° 0 mm 5 mps 696 mmHg 46%
    05:00 +23°C° 0 mm 5 mps 696 mmHg 46%
    06:00 +26°C° 0 mm 7 mps 696 mmHg 42%
    07:00 +28°C° 0 mm 8 mps 697 mmHg 39%
    08:00 +31°C° 0 mm 10 mps 697 mmHg 35%
    09:00 +32°C° 0 mm 9 mps 697 mmHg 33%
    10:00 +33°C° 0 mm 9 mps 698 mmHg 31%
    11:00 +34°C° 0 mm 9 mps 698 mmHg 29%
    12:00 +35°C° 0 mm 8 mps 697 mmHg 27%
    13:00 +36°C° 0 mm 7 mps 697 mmHg 26%
    14:00 +36°C° 0 mm 6 mps 696 mmHg 24%
    15:00 +36°C° 0 mm 5 mps 695 mmHg 24%
    16:00 +36°C° 0 mm 5 mps 695 mmHg 24%
    17:00 +36°C° 0 mm 4 mps 694 mmHg 24%
    18:00 +34°C° 0 mm 4 mps 694 mmHg 27%
    19:00 +33°C° 0 mm 4 mps 695 mmHg 30%
    20:00 +30°C° 0 mm 4 mps 695 mmHg 33%
    21:00 +29°C° 0 mm 4 mps 695 mmHg 36%
    22:00 +28°C° 0 mm 5 mps 695 mmHg 40%
    23:00 +27°C° 0 mm 5 mps 695 mmHg 43%

    Tomorrow, 16 November, Saturday

    Time Temperature Precipitation Wind Pressure Humidity
    00:00 +26°C° 0.3 mm 5 mps 695 mmHg 51%
    01:00 +23°C° 0.3 mm 5 mps 694 mmHg 59%
    02:00 +22°C° 0.3 mm 4 mps 694 mmHg 68%
    03:00 +21°C° 0.8 mm 4 mps 694 mmHg 69%
    04:00 +21°C° 0.8 mm 4 mps 694 mmHg 71%
    05:00 +21°C° 0.8 mm 3 mps 694 mmHg 73%
    06:00 +22°C° 0.5 mm 4 mps 695 mmHg 68%
    07:00 +23°C° 0.5 mm 4 mps 696 mmHg 63%
    08:00 +26°C° 0.5 mm 4 mps 697 mmHg 58%
    09:00 +27°C° 0.1 mm 5 mps 697 mmHg 55%
    10:00 +28°C° 0.1 mm 5 mps 697 mmHg 51%
    11:00 +30°C° 0.1 mm 5 mps 697 mmHg 47%
    12:00 +32°C° 0 mm 4 mps 697 mmHg 43%
    13:00 +33°C° 0 mm 3 mps 696 mmHg 40%
    14:00 +34°C° 0 mm 2 mps 695 mmHg 36%
    15:00 +34°C° 0 mm 3 mps 695 mmHg 36%
    16:00 +34°C° 0 mm 4 mps 694 mmHg 36%
    17:00 +34°C° 0 mm 5 mps 694 mmHg 36%
    18:00 +32°C° 0.1 mm 6 mps 694 mmHg 42%
    19:00 +29°C° 0.1 mm 7 mps 694 mmHg 47%
    20:00 +27°C° 0.1 mm 9 mps 694 mmHg 53%
    21:00 +26°C° 0.1 mm 7 mps 694 mmHg 54%
    22:00 +24°C° 0.1 mm 6 mps 694 mmHg 55%
    23:00 +25°C° 0.1 mm 5 mps 694 mmHg 57%

    Day after tomorrow, 17 November, Sunday

    Time Temperature Precipitation Wind Pressure Humidity
    00:00 +23°C° 0.3 mm 4 mps 694 mmHg 58%
    01:00 +24°C° 0.3 mm 3 mps 694 mmHg 59%
    02:00 +24°C° 0.3 mm 3 mps 693 mmHg 60%
    03:00 +23°C° 1.1 mm 4 mps 694 mmHg 60%
    04:00 +22°C° 1.1 mm 5 mps 694 mmHg 59%
    05:00 +22°C° 1.1 mm 6 mps 694 mmHg 59%
    06:00 +23°C° 0.4 mm 6 mps 695 mmHg 54%
    07:00 +26°C° 0.4 mm 7 mps 695 mmHg 49%
    08:00 +27°C° 0.4 mm 7 mps 696 mmHg 44%
    09:00 +29°C° 0.2 mm 7 mps 696 mmHg 41%
    10:00 +30°C° 0.2 mm 6 mps 696 mmHg 37%
    11:00 +33°C° 0.2 mm 6 mps 696 mmHg 34%
    12:00 +34°C° 0 mm 5 mps 696 mmHg 32%
    13:00 +35°C° 0 mm 5 mps 695 mmHg 29%
    14:00 +36°C° 0 mm 4 mps 695 mmHg 27%
    15:00 +36°C° 0 mm 4 mps 694 mmHg 27%
    16:00 +36°C° 0 mm 4 mps 694 mmHg 26%
    17:00 +36°C° 0 mm 4 mps 694 mmHg 25%
    18:00 +34°C° 0 mm 3 mps 694 mmHg 29%
    19:00 +31°C° 0 mm 3 mps 694 mmHg 33%
    20:00 +29°C° 0 mm 2 mps 694 mmHg 37%
    21:00 +28°C° 0.1 mm 3 mps 694 mmHg 41%
    22:00 +27°C° 0.1 mm 3 mps 695 mmHg 46%
    23:00 +26°C° 0.1 mm 3 mps 695 mmHg 50%

    18 November, Monday

    Time Temperature Precipitation Wind Pressure Humidity
    00:00 +25°C° 0 mm 4 mps 695 mmHg 58%
    01:00 +22°C° 0 mm 5 mps 695 mmHg 66%
    02:00 +21°C° 0 mm 6 mps 695 mmHg 74%
    03:00 +21°C° 0.1 mm 6 mps 696 mmHg 76%
    04:00 +20°C° 0.1 mm 5 mps 696 mmHg 79%
    05:00 +19°C° 0.1 mm 5 mps 697 mmHg 81%
    06:00 +21°C° 0 mm 5 mps 698 mmHg 74%
    07:00 +23°C° 0 mm 4 mps 698 mmHg 66%
    08:00 +25°C° 0 mm 4 mps 699 mmHg 59%
    09:00 +26°C° 0 mm 5 mps 699 mmHg 55%
    10:00 +27°C° 0 mm 5 mps 700 mmHg 51%
    11:00 +29°C° 0 mm 6 mps 700 mmHg 47%
    12:00 +29°C° 0.1 mm 6 mps 699 mmHg 46%
    13:00 +30°C° 0.1 mm 5 mps 699 mmHg 45%
    14:00 +30°C° 0.1 mm 5 mps 698 mmHg 45%
    15:00 +30°C° 0.2 mm 5 mps 698 mmHg 45%
    16:00 +30°C° 0.2 mm 5 mps 697 mmHg 46%
    17:00 +30°C° 0.2 mm 6 mps 697 mmHg 47%
    18:00 +28°C° 0 mm 5 mps 697 mmHg 51%
    19:00 +27°C° 0 mm 5 mps 697 mmHg 55%
    20:00 +26°C° 0 mm 5 mps 697 mmHg 59%
    21:00 +25°C° 0 mm 5 mps 697 mmHg 60%
    22:00 +25°C° 0 mm 4 mps 697 mmHg 62%
    23:00 +23°C° 0 mm 4 mps 697 mmHg 63%

    19 November, Tuesday

    Time Temperature Precipitation Wind Pressure Humidity
    00:00 +23°C° 0.1 mm 4 mps 697 mmHg 64%
    01:00 +23°C° 0.1 mm 4 mps 696 mmHg 65%
    02:00 +22°C° 0.1 mm 4 mps 696 mmHg 66%
    03:00 +22°C° 0.1 mm 4 mps 696 mmHg 63%
    04:00 +22°C° 0.1 mm 5 mps 696 mmHg 61%
    05:00 +23°C° 0.1 mm 5 mps 696 mmHg 59%
    06:00 +24°C° 0 mm 7 mps 696 mmHg 52%
    07:00 +26°C° 0 mm 9 mps 697 mmHg 46%
    08:00 +28°C° 0 mm 10 mps 697 mmHg 39%
    09:00 +29°C° 0 mm 10 mps 697 mmHg 35%
    10:00 +32°C° 0 mm 10 mps 697 mmHg 31%
    11:00 +34°C° 0 mm 9 mps 697 mmHg 28%
    12:00 +35°C° 0 mm 9 mps 696 mmHg 26%
    13:00 +35°C° 0 mm 9 mps 695 mmHg 25%
    14:00 +37°C° 0 mm 9 mps 694 mmHg 24%
    15:00 +37°C° 0 mm 8 mps 694 mmHg 24%
    16:00 +37°C° 0 mm 8 mps 693 mmHg 24%
    17:00 +37°C° 0 mm 8 mps 692 mmHg 24%
    18:00 +34°C° 0 mm 6 mps 692 mmHg 28%
    19:00 +32°C° 0 mm 5 mps 692 mmHg 32%
    20:00 +29°C° 0 mm 3 mps 692 mmHg 36%
    21:00 +29°C° 0 mm 4 mps 693 mmHg 36%
    22:00 +28°C° 0 mm 5 mps 693 mmHg 36%
    23:00 +28°C° 0 mm 6 mps 693 mmHg 36%

    20 November, Wednesday

    Time Temperature Precipitation Wind Pressure Humidity
    00:00 +28°C° 0 mm 5 mps 693 mmHg 37%
    01:00 +28°C° 0 mm 5 mps 693 mmHg 37%
    02:00 +27°C° 0 mm 5 mps 693 mmHg 38%
    03:00 +26°C° 0 mm 6 mps 693 mmHg 39%
    04:00 +24°C° 0 mm 7 mps 693 mmHg 41%
    05:00 +22°C° 0 mm 7 mps 694 mmHg 42%
    06:00 +23°C° 0 mm 8 mps 694 mmHg 43%
    07:00 +24°C° 0 mm 8 mps 695 mmHg 45%
    08:00 +24°C° 0 mm 9 mps 696 mmHg 46%
    09:00 +27°C° 0 mm 9 mps 696 mmHg 42%
    10:00 +28°C° 0 mm 9 mps 697 mmHg 39%
    11:00 +31°C° 0 mm 9 mps 697 mmHg 36%
    12:00 +31°C° 0.1 mm 9 mps 697 mmHg 36%
    13:00 +31°C° 0.1 mm 9 mps 696 mmHg 37%
    14:00 +31°C° 0.1 mm 9 mps 696 mmHg 38%
    15:00 +28°C° 0.7 mm 10 mps 696 mmHg 42%
    16:00 +27°C° 0.7 mm 10 mps 695 mmHg 46%
    17:00 +24°C° 0.7 mm 11 mps 695 mmHg 50%
    18:00 +22°C° 0.8 mm 10 mps 695 mmHg 57%
    19:00 +19°C° 0.8 mm 10 mps 696 mmHg 65%
    20:00 +18°C° 0.8 mm 10 mps 696 mmHg 72%
    21:00 +18°C° 0.9 mm 10 mps 696 mmHg 75%
    22:00 +17°C° 0.9 mm 10 mps 697 mmHg 78%
    23:00 +17°C° 0.9 mm 10 mps 697 mmHg 81%
    Show more